User: anonymous   Login
Location: Unspecified
(0.0000°N, 0.0000°E)
Time: 07:51:25
(UTC+00:00)
Language:

COSMOS 2490 - Orbit

View from above orbital plane
View from above orbital plane
View from above satellite
View from above satellite

Ground track
Ground track

The orbit data is extracted from the following two-line orbital elements,

1 39485U 13076C   17328.47046136 +.00000022 +00000-0 +87513-4 0  9990
2 39485 082.4809 317.1414 0023028 085.4851 274.8864 12.42887648177676
Epoch (UTC): 24 November 2017 11:17:27
Eccentricity: 0.0023028
inclination: 82.4809°
perigee height: 1476 km
apogee height: 1512 km
right ascension of ascending node: 317.1414°
argument of perigee: 85.4851°
revolutions per day: 12.42887648
mean anomaly at epoch: 274.8864°
orbit number at epoch: 17767

The dashed part of the orbit path shows where the satellite is in the earth's shadow,  

DLR